Regional Weather Roundup
Issued by NWS Boston, MA

Home | Current Version | Previous Version | Text Only | Print | Product List | Glossary On
Versions: 1 2 3 4 5 6 7 8 9 10 11 12 13 14 15 16 17 18 19 20 21 22 23 24 25 26 27 28 29 30 31 32 33 34 35 36 37 38 39 40 41 42 43 44 45 46 47 48 49 50
000
ASUS41 KBOX 262310
RWRBOX

REGIONAL WEATHER ROUNDUP
NATIONAL WEATHER SERVICE TAUNTON MA
600 PM EST WED NOV 26 2014

NOTE:  "FAIR" INDICATES FEW OR NO CLOUDS BELOW 12,000 FEET WITH NO
SIGNIFICANT WEATHER AND/OR OBSTRUCTIONS TO VISIBILITY.  THE FOLLOWING
OBSERVATION LOCATIONS DO NOT REPORT PRESENT WEATHER...PROVINCETOWN...
SMITHFIELD...BLOCK ISLAND...KEENE...AND OXFORD.

MAZALL-270000-
EASTERN MASSACHUSETTS

CITY           SKY/WX    TMP DP  RH WIND       PRES   REMARKS
BOSTON         RAIN      37  35  92 N22G32    29.85F FOG     WCI  26
BEVERLY        RAIN      35  32  88 NE13G24   29.86F FOG     WCI  26
LAWRENCE       LGT SNOW  33  31  92 NE17      29.91F FOG     WCI  22
BEDFORD        MIX PCPN  32  31  96 N16G25    29.85F FOG     WCI  21
BLUE HILL        N/A     34  34 100 NE20G41   29.78F WCI  23
NORWOOD        RAIN      36  34  92 N15G25    29.83F FOG     WCI  27
MARSHFIELD     HVY RAIN  43  41  93 NE18G36   29.84F
PLYMOUTH       HVY RAIN  42  40  92 NE24G37   29.78F FOG
TAUNTON        RAIN      41  38  89 NE15G30   29.74F FOG
NEW BEDFORD    RAIN      42  40  92 NE22G35   29.71F FOG
$$

MAZALL-270000-
CAPE COD AND THE ISLANDS

CITY           SKY/WX    TMP DP  RH WIND       PRES   REMARKS
FALMOUTH       HVY RAIN  43  43 100 NE14G24   29.75F
HYANNIS        RAIN      45  43  93 NE20G32   29.67F FOG
CHATHAM        HVY RAIN  46  44  93 NE21G36   29.71F FOG
PROVINCETOWN   CLOUDY    45  39  81 NE33G41   29.77F
NANTUCKET      HVY RAIN  47  44  90 NE31G40   29.64F FOG
MARTHAS VNYRD  HVY RAIN  44  43  96 NE25G37   29.68F FOG
$$

MAZALL-270000-
CENTRAL AND WESTERN MASSACHUSETTS

CITY           SKY/WX    TMP DP  RH WIND       PRES   REMARKS
WORCESTER      MIX PCPN  30  30 100 NE17G28   29.79F FOG     WCI  18
FITCHBURG      SNOW      34  31  88 N10G17    29.89F VSB 1/2 WCI  26
ORANGE         LGT SNOW  33  31  92 N12       29.87F VSB 1   WCI  24
SPRINGFIELD    LGT SNOW  33  31  95 N13       29.85F VSB 1   WCI  23
WESTFIELD      LGT SNOW  33  31  92 N16       29.86F VSB 1   WCI  23
NORTH ADAMS    LGT SNOW  32  31  96 VRB5      29.91F VSB 1   WCI  27
PITTSFIELD     LGT SNOW  31  30  96 N8        29.84F VSB 1   WCI  23
$$

RIZALL-270000-
RHODE ISLAND

CITY           SKY/WX    TMP DP  RH WIND       PRES   REMARKS
PROVIDENCE     RAIN      36  35  96 N18G24    29.76F FOG     WCI  26
NEWPORT        RAIN      41  38  89 N18G25    29.74F FOG
BLOCK ISLAND   CLOUDY    41  37  87 NE25G38   29.67F WCI  31
SMITHFIELD     CLOUDY    34  27  75 NE23G30   29.76F WCI  22
WESTERLY       LGT RAIN  37  35  92 N12G21    29.71F WCI  29
$$

CTZALL-270000-
CONNECTICUT

CITY           SKY/WX    TMP DP  RH WIND       PRES   REMARKS
BRADLEY INTL   LGTSLEET  34  31  88 N15G22    29.83F FOG     WCI  24
HARTFORD       RAIN      34  32  92 N13G21    29.81F FOG     WCI  25
BRIDGEPORT     LGT RAIN  38  35  89 N21G29    29.74F WCI  28
DANBURY        LGT RAIN  35  32  88 N14       29.80F FOG     WCI  26
GROTON         LGT RAIN  37  37 100 NE25G35   29.67F FOG     WCI  25
NEW HAVEN      LGT RAIN  37  33  85 N21G26    29.72F WCI  26
CHESTER        MIX PCPN  36  34  93 NE14G23   29.72F WCI  27
MERIDEN        LGT RAIN  34  31  88 N14G25    29.78F FOG     WCI  25
WILLIMANTIC    LGT RAIN  36  32  85 NE17G29   29.75F WCI  26
OXFORD         LGT SNOW  34  27  75 NE15G23   29.80  FOG     WCI  24
$$

MEZ002-015-021-024-NHZ003-005-008-011-012-014-VTZ005-008-270000-
NORTHERN NEW ENGLAND

CITY           SKY/WX    TMP DP  RH WIND       PRES   REMARKS
PORTLAND ME    HVY SNOW  34  32  92 N14       30.00S VSB 1/4 WCI  25
BANGOR ME      SNOW      32  31  96 NE13      30.06F VSB 1/2 WCI  22
CONCORD NH     LGT SNOW  32  31  96 N9        29.94F VSB 1   WCI  24
MANCHESTER NH  LGT SNOW  33  30  88 N13       29.90F VSB 3/4 WCI  24
NASHUA NH      LGT SNOW  34  32  93 N7        29.92F VSB 3/4 WCI  28
PORTSMOUTH NH  LGT SNOW  33  31  94 N13       29.92F VSB 1   WCI  23
JAFFREY NH     LGT SNOW  31  29  92 N8        29.87F VSB 3/4 WCI  23
KEENE NH       NOT AVBL
BURLINGTON VT  LGT SNOW  29  26  89 N9        30.08F VSB 1   WCI  20
MT. WASHINGTON HVY SNOW  19  19 100 E37         N/A  VSB 1/16WCI  -1
$$

NYZ052-076-270000-
EASTERN NEW YORK

CITY           SKY/WX    TMP DP  RH WIND       PRES   REMARKS
ALBANY         LGT SNOW  32  30  92 N10G22    29.98R VSB 1   WCI  24
NEW YORK CITY  LGT RAIN  37  34  87 N14G23    29.79S FOG     WCI  29
$$

ANZALL-270000-
MARINE OBSERVATIONS

STATION/POSITION TIME  TEMP    WIND        PRES    VSBY  WAVE
                       AIR SEA DIR/SP/G                  HT/PER
                 (UTC) (F)     (DEG/KT/KT) (MB)    (MI)  (FT/S)
BOSTON BUOY      2250   42 49   40/ 29/ 37 1010.0F         8/ 7
BUZZARDS BAY     2200           40/ 34/ 39 1006.5F
NANTUCKET SOUND  2250   47 47   40/ 33/ 43 1002.7F         6/ 4
MASS BAY-STELLWA 2204   40 51   40/ 29/ 33   N/A     3/4   8/ 6
ISLE OF SHOALS   2200   35      30/ 33/ 36 1013.3F
S OF BLOCK IS    2208      56                N/A          10/ 7
$$

......................KEY.........................
  SKY/WX - SKY CONDITION/PRESENT WEATHER
  TMP    - TEMPERATURE IN FAHRENHEIT
  DWPT   - DEWPOINT IN FAHRENHEIT
  RH     - RELATIVE HUMIDITY IN PERCENT
  WIND   - DIRECTION AND SPEED IN MPH
  PRES   - MEAN SEA LEVEL PRESSURE IN INCHES OF HG
  WCI    - WIND CHILL INDEX
  VSB    - VISIBILITY IN MILES
  HX     - HEAT INDEX
  TC     - TEMPERATURE IN CELSIUS
  VRB    - VARIABLE WIND DIRECTION
  N/A    - NOT AVAILABLE


USA.gov is the U.S. government's official web portal to all federal, state and local government web resources and services.